User: anonymous   Login
Location: Roanoke
(37.2710°N, 79.9420°W)
Time: 22:46:06
(UTC-04:00)
Language:

FENGYUN 3A - Orbit

View from above orbital plane
View from above orbital plane
View from above satellite
View from above satellite

Ground track
Ground track

The orbit data is extracted from the following two-line orbital elements,

1 32958U 08026A   16146.50198679  .00000050  00000-0  43201-4 0  9995
2 32958  98.4543 187.5687 0009118 333.4623  26.6092 14.19619078414333
Epoch (UTC): 25 May 2016 12:02:51
Eccentricity: 0.0009118
inclination: 98.4543°
perigee height: 820 km
apogee height: 833 km
right ascension of ascending node: 187.5687°
argument of perigee: 333.4623°
revolutions per day: 14.19619078
mean anomaly at epoch: 26.6092°
orbit number at epoch: 41433

The dashed part of the orbit path shows where the satellite is in the earth's shadow,  

DLR